Torna al catalogo

S6 MICHAEL FREILICH

AttivoScienzaLEO
NORAD 46984·PAYLOAD·🇪🇺 EU

Lanciato Nov 21, 2020 da Vandenberg Space Force Base

Loading…

Prossimi Passaggi (prossime 24 ore)

TLE

AggiornatoSource: CelesTrak SupGP

Epoca: Sep 14, 2026, 00:00 UTC

1 46984C 20086A   26257.00000000  .00000049  00000+0  21276-3 0  2579
2 46984  66.0420 310.5863 0007908 270.1158  25.4620 12.80929206    14

Traccia S6 MICHAEL FREILICH in tempo reale con AllMySat

Download on the App Store